Regional Weather Roundup
Issued by NWS

Home | Current Version | Previous Version | Text Only | Print | Product List | Glossary Off
Versions: 1 2 3 4 5 6 7 8 9 10 11 12 13 14 15 16 17 18 19 20 21 22 23 24 25 26 27

000
ASUS45 KBOU 061007
RWRCO

WEATHER ROUNDUP FOR COLORADO
NATIONAL WEATHER SERVICE DENVER/BOULDER CO
300 AM MST TUE DEC 06 2016

NOTE: "FAIR" INDICATES FEW OR NO CLOUDS BELOW 12000 FEET WITH NO
SIGNIFICANT WEATHER AND/OR OBSTRUCTIONS TO VISIBILITY.

COZ001>005-013-030-031-061100-
...NORTHWEST COLORADO...

CITY           SKY/WX    TMP DP  RH WIND       PRES   REMARKS
CRAIG          FAIR      -4 -10  75 CALM      29.97S
HAYDEN         FAIR       0  -9  65 E9        29.93F WCI -16
MEEKER         CLOUDY     7  -1  70 N3        29.94F
MOUNT WERNER   NOT AVBL
STEAMBOAT SPGS FAIR      -6 -10  81 CALM      29.94S
WALDEN           N/A     -6 -15  65 SE3       29.86S
$$

COZ006>008-011-061100-
...WEST CENTRAL VALLEYS...

CITY           SKY/WX    TMP DP  RH WIND       PRES   REMARKS
GRAND JUNCTION FAIR      20   7  57 E5        29.95F WCI  13
MONTROSE       FAIR      16   9  74 SE8       29.97S WCI   5
EAGLE          CLOUDY    20   3  48 CALM      29.94S
RIFLE          CLOUDY    23   6  48 W5        29.95F WCI  17
DELTA          NOT AVBL
NUCLA          FAIR      19  12  73 E9        29.94S WCI   9
$$

COZ017>023-064>068-061100-
...SOUTHWEST COLORADO...

CITY           SKY/WX    TMP DP  RH WIND       PRES   REMARKS
DURANGO        FAIR      20  13  74 NE5       29.90S WCI  13
CORTEZ         FAIR      20  17  88 E6        29.89F WCI  12
PAGOSA SPRINGS FAIR      18  13  80 CALM      29.90S
TELLURIDE      FAIR      19   5  56 SE5       29.89S WCI  12
WOLF CREEK PAS FAIR       9   9 100 S17       29.89S WCI -10
$$

COZ009-010-012-014-032>034-037-058>063-061100-
...CENTRAL COLORADO...

CITY           SKY/WX    TMP DP  RH WIND       PRES   REMARKS
ASPEN          CLOUDY    16   5  62 S3        29.86F
BUENA VISTA    FAIR      20   1  45 NW9G22    29.80F WCI   9
COPPER MTN     CLOUDY     5  -4  66 MISG      29.71F
BERTHOUD PASS  LGT SNOW  -4 -15  59 W31G49    29.60F VSB 1   WCI -32
COTTONWOOD PAS MOCLDY    21   5  49 W9        29.76S WCI  11
GUNNISON       FAIR       9   3  77 NW7       29.89S WCI  -2
KREMMLING      CLOUDY     9  -4  56 W5        29.91F WCI   0
LEADVILLE      CLOUDY     7   1  76 N12       29.77S WCI  -8
MONARCH PASS   CLOUDY     5   1  85 SW30G37   29.84F WCI -19
SALIDA         FAIR      19   2  47 SE10G18   29.90F WCI   8
SUNLIGHT       LGT SNOW   5   1  85 SW9G18    29.82S WCI  -9
WILKERSON PASS FAIR       7  -2  66 SW12G18   29.75F WCI  -9
$$

COZ069>075-061100-
...SAN LUIS VALLEY/SANGRE DE CRISTO MOUNTAINS...

CITY           SKY/WX    TMP DP  RH WIND       PRES   REMARKS
ALAMOSA        FAIR       5   2  87 VRB5      29.85S WCI  -4
LA VETA PASS   FAIR      19   3  49 NE17G28   29.83S WCI   4
SAGUACHE       FAIR      19   9  63 NW10      29.86F WCI   8
$$

COZ035-036-038>040-061100-
...NORTHERN COLORADO FRONT RANGE...

CITY           SKY/WX    TMP DP  RH WIND       PRES   REMARKS
DENVER INTL AP FAIR       8  -4  58 SE12      29.93S WCI  -7
DMNS CITY PARK   N/A     17  -4  38 SE9G16    29.94F WCI   5
AURORA         PTCLDY    10  -4  53 S9        29.94R WCI  -3
FRONT RANGE AP FAIR      12   1  62 SE9       29.95S WCI   0
ERIE MUNI ARPT FAIR      17  -2  42 S5        29.95S WCI  10
BOULDER MUN AP FAIR      21   0  39 SE12      29.93S WCI   9
CENTENNIAL     FAIR      14  -4  44 S9        29.92S WCI   2
BROOMFIELD     FAIR      19  -2  38 SE6       29.93S WCI  11
FORT COLLINS   FAIR      23 -17  16 NW15      29.94R WCI  10
LONGMONT       FAIR      21  -4  33 SE9       29.96S WCI  11
$$

COZ041-046-047-076>085-087-088-061100-
...PIKES PEAK/PALMER DIVIDE AND SOUTHERN FOOTHILLS...

CITY           SKY/WX    TMP DP  RH WIND       PRES   REMARKS
COLO. SPRINGS  FAIR      14  -4  44 S3        29.94S
A. F. ACADEMY  FAIR       6  -4  63 N8        29.89F WCI  -7
SCHRIEVER AFB  NOT AVBL
ELLICOTT       LGT RAIN N/A N/A N/A N7          N/A
FALCON         FAIR      10  -6  46 N5        29.90F WCI   2
FORT CARSON    FAIR      14  -3  46 S9        29.92F WCI   2
LIMON          FAIR       7   4  87 W10       29.95S WCI  -8
MONUMENT HILL  FAIR       7  -6  56 SE7       29.89F WCI  -5
TRINIDAD       FAIR      12  -1  56 N3        29.98S
$$

COZ042>045-048>051-090-091-061100-
...NORTHEAST COLORADO...

CITY           SKY/WX    TMP DP  RH WIND       PRES   REMARKS
GREELEY ARPT   FAIR      17  -7  34 NW9       29.97S WCI   6
AKRON          FAIR       7   2  80 N9        29.97S WCI  -7
BURLINGTON     FAIR       9   2  73 NW7       29.99R WCI  -2
WRAY           NOT AVBL
STERLING       FAIR      10   3  72 NW9       30.00F WCI  -2
HOLYOKE        FAIR      14   7  73 W7        30.00F WCI   4
FORT MORGAN    FAIR      11   4  73 N13       29.99S WCI  -4
$$

COZ086-089-092>099-061100-
...SOUTHEAST COLORADO...

CITY           SKY/WX    TMP DP  RH WIND       PRES   REMARKS
PUEBLO         FAIR      11   0  61 CALM      30.00S
LA JUNTA       FAIR      18   6  59 NW5       30.04R WCI  11
LAMAR          FAIR      14   7  73 W7        30.03R WCI   4
SPRINGFIELD      N/A     16   7  67 NW13      29.99S WCI   2
$$




USA.gov is the U.S. government's official web portal to all federal, state and local government web resources and services.